| time (UTC) | temp F | wind direction | speed MPH | gust MPH | rain 1hr in | rain 24hr in | rain mn in | humidity % | barometer mb |
| 20260902210046 | 59 | 193 | 2.0 | 6.0 | 0.00 | 0.00 | 0.00 | 75 | 1006.8 |
| 20260902204541 | 59 | 199 | 3.0 | 8.0 | 0.00 | 0.00 | 0.00 | 74 | 1006.8 |
| 20260902201547 | 59 | 259 | 3.0 | 9.0 | 0.00 | 0.00 | 0.00 | 71 | 1006.9 |
| 20260902200036 | 59 | 197 | 2.0 | 6.0 | 0.00 | 0.00 | 0.00 | 70 | 1006.9 |
| 20260902194540 | 59 | 197 | 1.0 | 5.0 | 0.00 | 0.00 | 0.00 | 69 | 1006.9 |
| 20260902191534 | 60 | 203 | 1.0 | 6.0 | 0.00 | 0.00 | 0.00 | 67 | 1006.9 |
| 20260902190032 | 60 | 218 | 2.0 | 7.0 | 0.00 | 0.00 | 0.00 | 66 | 1006.7 |
| 20260902184529 | 60 | 217 | 2.0 | 6.0 | 0.00 | 0.00 | 0.00 | 64 | 1006.8 |
| 20260902181526 | 62 | 203 | 1.0 | 7.0 | 0.00 | 0.00 | 0.00 | 63 | 1006.8 |
| 20260902180024 | 62 | 149 | 2.0 | 10.0 | 0.00 | 0.00 | 0.00 | 60 | 1006.8 |
| 20260902174525 | 62 | 217 | 3.0 | 8.0 | 0.00 | 0.00 | 0.00 | 59 | 1006.7 |
| 20260902171519 | 64 | 193 | 2.0 | 13.0 | 0.00 | 0.00 | 0.00 | 58 | 1006.7 |
| 20260902170017 | 65 | 203 | 2.0 | 9.0 | 0.00 | 0.00 | 0.00 | 57 | 1006.7 |
| 20260902164522 | 66 | 191 | 4.0 | 16.0 | 0.00 | 0.00 | 0.00 | 56 | 1006.6 |
| 20260902161521 | 66 | 235 | 2.0 | 8.0 | 0.00 | 0.00 | 0.00 | 55 | 1006.6 |
| 20260902160009 | 66 | 195 | 4.0 | 8.0 | 0.00 | 0.00 | 0.00 | 54 | 1006.5 |
| 20260902154514 | 66 | 195 | 5.0 | 13.0 | 0.00 | 0.00 | 0.00 | 53 | 1006.5 |
| 20260902151506 | 67 | 205 | 4.0 | 15.0 | 0.00 | 0.00 | 0.00 | 50 | 1006.6 |
| 20260902150014 | 67 | 214 | 6.0 | 14.0 | 0.00 | 0.00 | 0.00 | 49 | 1006.5 |
| 20260902144506 | 69 | 291 | 2.0 | 14.0 | 0.00 | 0.00 | 0.00 | 48 | 1006.7 |
| 20260902141602 | 69 | 294 | 3.0 | 15.0 | 0.00 | 0.00 | 0.00 | 51 | 1006.5 |
| 20260902140107 | 69 | 228 | 4.0 | 10.0 | 0.00 | 0.00 | 0.00 | 54 | 1006.5 |
| 20260902134559 | 69 | 221 | 2.0 | 8.0 | 0.00 | 0.00 | 0.00 | 56 | 1006.4 |
| 20260902131600 | 69 | 239 | 2.0 | 9.0 | 0.00 | 0.00 | 0.00 | 57 | 1006.4 |
| 20260902130057 | 70 | 253 | 3.0 | 11.0 | 0.00 | 0.00 | 0.00 | 56 | 1006.4 |
| 20260902124553 | 69 | 248 | 3.0 | 10.0 | 0.00 | 0.00 | 0.00 | 60 | 1006.5 |
| 20260902121558 | 68 | 162 | 3.0 | 13.0 | 0.00 | 0.00 | 0.00 | 64 | 1006.6 |
| 20260902120044 | 68 | 128 | 2.0 | 12.0 | 0.00 | 0.00 | 0.00 | 65 | 1006.7 |
| 20260902114549 | 67 | 247 | 4.0 | 9.0 | 0.00 | 0.00 | 0.00 | 67 | 1007.0 |
| 20260902111538 | 67 | 257 | 4.0 | 9.0 | 0.00 | 0.00 | 0.00 | 70 | 1007.3 |
| 20260902110038 | 66 | 210 | 5.0 | 9.0 | 0.00 | 0.00 | 0.00 | 72 | 1007.4 |
| 20260902104557 | 66 | 194 | 3.0 | 7.0 | 0.00 | 0.00 | 0.00 | 74 | 1007.4 |
| 20260902101547 | 64 | 211 | 3.0 | 8.0 | 0.00 | 0.00 | 0.00 | 78 | 1007.6 |
| 20260902100037 | 64 | 208 | 2.0 | 6.0 | 0.00 | 0.00 | 0.00 | 77 | 1007.6 |
| 20260902094536 | 65 | 211 | 1.0 | 5.0 | 0.00 | 0.00 | 0.00 | 76 | 1007.7 |
| 20260902091540 | 64 | 215 | 3.0 | 9.0 | 0.00 | 0.00 | 0.00 | 77 | 1007.8 |
| 20260902090036 | 63 | 185 | 1.0 | 7.0 | 0.00 | 0.00 | 0.00 | 79 | 1007.7 |
| 20260902084535 | 63 | 205 | 3.0 | 10.0 | 0.00 | 0.00 | 0.00 | 79 | 1007.7 |
| 20260902081534 | 62 | 191 | 4.0 | 10.0 | 0.00 | 0.00 | 0.00 | 80 | 1007.9 |
| 20260902080032 | 63 | 188 | 2.0 | 7.0 | 0.00 | 0.00 | 0.00 | 80 | 1007.8 |
| 20260902074532 | 62 | 224 | 2.0 | 8.0 | 0.00 | 0.00 | 0.00 | 80 | 1007.8 |
| 20260902071531 | 61 | 174 | 3.0 | 9.0 | 0.00 | 0.00 | 0.00 | 81 | 1007.7 |
| 20260902070029 | 61 | 195 | 3.0 | 11.0 | 0.00 | 0.00 | 0.00 | 82 | 1007.7 |
| 20260902064534 | 60 | 274 | 2.0 | 9.0 | 0.00 | 0.00 | 0.00 | 83 | 1007.6 |
| 20260902061543 | 60 | 193 | 3.0 | 8.0 | 0.00 | 0.00 | 0.00 | 85 | 1007.7 |
| 20260902060032 | 59 | 217 | 1.0 | 6.0 | 0.00 | 0.00 | 0.00 | 86 | 1007.7 |
| 20260902054532 | 59 | 191 | 4.0 | 11.0 | 0.00 | 0.00 | 0.00 | 86 | 1007.7 |
| 20260902051529 | 0 | 0.0 | 0.0 | 0.00 | 0.00 | 0.00 | 1007.6 | ||
| 20260902050025 | 0 | 0.0 | 0.0 | 0.00 | 0.00 | 0.00 | 1007.7 | ||
| 20260902044526 | 0 | 0.0 | 0.0 | 0.00 | 0.00 | 0.00 | 1007.6 | ||
| 20260902041513 | 0 | 0.0 | 0.0 | 0.00 | 0.00 | 0.00 | 1007.6 | ||
| 20260902040009 | 0 | 0.0 | 0.0 | 0.00 | 0.00 | 0.00 | 1007.7 | ||
| 20260902034507 | 55 | 187 | 1.0 | 4.0 | 0.00 | 0.00 | 0.00 | 93 | 1007.7 |
| 20260902031504 | 55 | 192 | 0.0 | 4.0 | 0.00 | 0.00 | 0.00 | 93 | 1007.8 |
| 20260902030004 | 56 | 188 | 1.0 | 3.0 | 0.00 | 0.00 | 0.00 | 93 | 1007.8 |
| 20260902024502 | 56 | 194 | 1.0 | 5.0 | 0.00 | 0.00 | 0.00 | 93 | 1007.9 |
| 20260902021600 | 57 | 200 | 0.0 | 2.0 | 0.00 | 0.00 | 0.00 | 92 | 1007.9 |
| 20260902020057 | 57 | 193 | 0.0 | 2.0 | 0.00 | 0.00 | 0.00 | 92 | 1008.0 |
| 20260902014556 | 57 | 194 | 0.0 | 3.0 | 0.00 | 0.00 | 0.00 | 92 | 1008.0 |
| 20260902011623 | 57 | 194 | 0.0 | 5.0 | 0.00 | 0.00 | 0.00 | 91 | 1008.0 |
| 20260902010053 | 57 | 205 | 0.0 | 2.0 | 0.00 | 0.00 | 0.00 | 91 | 1008.1 |
| 20260902004553 | 58 | 250 | 0.0 | 3.0 | 0.00 | 0.00 | 0.00 | 90 | 1008.1 |
| 20260902001550 | 59 | 204 | 0.0 | 2.0 | 0.00 | 0.00 | 0.00 | 89 | 1008.1 |
| 20260902000049 | 59 | 218 | 0.0 | 2.0 | 0.00 | 0.00 | 0.00 | 88 | 1008.0 |
| 20260901234554 | 59 | 270 | 1.0 | 3.0 | 0.00 | 0.00 | 0.00 | 88 | 1008.0 |
| 20260901231606 | 59 | 263 | 0.0 | 2.0 | 0.00 | 0.00 | 0.00 | 87 | 1008.2 |
| 20260901230056 | 59 | 219 | 0.0 | 1.0 | 0.00 | 0.00 | 0.00 | 87 | 1008.2 |
| 20260901224545 | 59 | 205 | 0.0 | 2.0 | 0.00 | 0.00 | 0.00 | 86 | 1008.2 |
| 20260901221609 | 59 | 195 | 0.0 | 2.0 | 0.00 | 0.00 | 0.00 | 87 | 1008.2 |
| 20260901220055 | 59 | 212 | 0.0 | 1.0 | 0.00 | 0.00 | 0.00 | 87 | 1008.1 |
| 20260901214543 | 59 | 200 | 0.0 | 0.0 | 0.00 | 0.00 | 0.00 | 86 | 1008.1 |
| 20260901211541 | 58 | 181 | 0.0 | 0.0 | 0.00 | 0.00 | 0.00 | 86 | 1008.1 |